Time,TemperatureF,DewpointF,PressureIn,WindDirection,WindDirectionDegrees,WindSpeedMPH,WindSpeedGustMPH,Humidity,HourlyPrecipIn,Conditions,Clouds,dailyrainin,SoftwareType,DateUTC
2013-08-07 00:02:00,72.0,72.0,29.90,SSE,160,5.0,-999.0,100,-99.99,,,-99.99,,2013-08-07 05:02:00,
2013-08-07 00:11:00,72.0,72.0,29.90,SSE,160,3.0,-999.0,100,-99.99,,,-99.99,,2013-08-07 05:11:00,
2013-08-07 00:22:00,72.0,72.0,29.90,North,0,0.0,-999.0,100,-99.99,,,-99.99,,2013-08-07 05:22:00,
2013-08-07 00:32:00,72.0,72.0,29.89,SSE,160,5.0,-999.0,100,-99.99,,,-99.99,,2013-08-07 05:32:00,
2013-08-07 00:43:00,70.0,70.0,29.89,SSE,160,3.0,-999.0,100,-99.99,,,-99.99,,2013-08-07 05:43:00,
2013-08-07 00:52:00,70.0,70.0,29.88,North,0,0.0,-999.0,100,-99.99,,,-99.99,,2013-08-07 05:52:00,
2013-08-07 01:02:00,70.0,70.0,29.87,SE,130,3.0,-999.0,100,-99.99,,,-99.99,,2013-08-07 06:02:00,
2013-08-07 01:12:00,70.0,-99.9,29.87,SE,140,3.0,-999.0,-999,-99.99,,,-99.99,,2013-08-07 06:12:00,
2013-08-07 01:22:00,70.0,-99.9,29.87,SSE,150,3.0,-999.0,-999,-99.99,,,-99.99,,2013-08-07 06:22:00,
2013-08-07 01:32:00,70.0,-99.9,29.87,North,0,0.0,-999.0,-999,-99.99,,,-99.99,,2013-08-07 06:32:00,
2013-08-07 01:43:00,70.0,-99.9,29.87,SSE,160,3.0,-999.0,-999,-99.99,,,-99.99,,2013-08-07 06:43:00,
2013-08-07 01:52:00,70.0,-99.9,29.87,SSE,150,3.0,-999.0,-999,-99.99,,,-99.99,,2013-08-07 06:52:00,
2013-08-07 02:01:00,70.0,-99.9,29.86,SSE,150,5.0,-999.0,-999,-99.99,,,-99.99,,2013-08-07 07:01:00,
2013-08-07 02:12:00,70.0,-99.9,29.86,SSE,160,6.0,-999.0,-999,-99.99,,,-99.99,,2013-08-07 07:12:00,
2013-08-07 02:22:00,70.0,-99.9,29.85,SSE,150,6.0,-999.0,-999,-99.99,,,-99.99,,2013-08-07 07:22:00,
2013-08-07 02:33:00,70.0,-99.9,29.84,SSE,150,5.0,-999.0,-999,-99.99,,,-99.99,,2013-08-07 07:33:00,
2013-08-07 02:44:00,70.0,-99.9,29.84,SSE,150,5.0,-999.0,-999,-99.99,,,-99.99,,2013-08-07 07:44:00,
2013-08-07 02:53:00,70.0,-99.9,29.84,SSE,160,5.0,-999.0,-999,-99.99,,,-99.99,,2013-08-07 07:53:00,
2013-08-07 03:02:00,70.0,-99.9,29.84,SSE,150,5.0,-999.0,-999,-99.99,,,-99.99,,2013-08-07 08:02:00,
2013-08-07 03:11:00,70.0,-99.9,29.84,SE,140,3.0,-999.0,-999,-99.99,,,-99.99,,2013-08-07 08:11:00,
2013-08-07 03:22:00,70.0,-99.9,29.84,SSE,160,6.0,-999.0,-999,-99.99,,,-99.99,,2013-08-07 08:22:00,
2013-08-07 03:32:00,70.0,-99.9,29.84,SSE,150,6.0,-999.0,-999,-99.99,,,-99.99,,2013-08-07 08:32:00,
2013-08-07 03:44:00,70.0,-99.9,29.85,SSE,150,5.0,-999.0,-999,-99.99,,,-99.99,,2013-08-07 08:44:00,
2013-08-07 03:53:00,70.0,-99.9,29.85,SSE,160,8.0,-999.0,-999,-99.99,,,-99.99,,2013-08-07 08:53:00,
2013-08-07 04:02:00,70.0,-99.9,29.85,South,180,9.0,-999.0,-999,-99.99,,,-99.99,,2013-08-07 09:02:00,
2013-08-07 04:12:00,70.0,-99.9,29.84,South,190,9.0,-999.0,-999,-99.99,,,-99.99,,2013-08-07 09:12:00,
2013-08-07 04:22:00,70.0,-99.9,29.84,SSW,200,6.0,-999.0,-999,-99.99,,,-99.99,,2013-08-07 09:22:00,
2013-08-07 04:32:00,70.0,-99.9,29.84,South,190,3.0,-999.0,-999,-99.99,,,-99.99,,2013-08-07 09:32:00,
2013-08-07 04:43:00,70.0,-99.9,29.84,SW,230,3.0,-999.0,-999,-99.99,,,-99.99,,2013-08-07 09:43:00,
2013-08-07 04:54:00,70.0,-99.9,29.83,SW,220,3.0,-999.0,-999,-99.99,,,-99.99,,2013-08-07 09:54:00,
2013-08-07 05:01:00,70.0,-99.9,29.83,SSW,210,3.0,-999.0,-999,-99.99,,,-99.99,,2013-08-07 10:01:00,
2013-08-07 05:11:00,70.0,-99.9,29.84,SSW,210,3.0,-999.0,-999,-99.99,,,-99.99,,2013-08-07 10:11:00,
2013-08-07 05:22:00,70.0,-99.9,29.84,SW,230,5.0,-999.0,-999,-99.99,,,-99.99,,2013-08-07 10:22:00,
2013-08-07 05:32:00,70.0,-99.9,29.84,WSW,240,5.0,-999.0,-999,-99.99,,,-99.99,,2013-08-07 10:32:00,
2013-08-07 05:43:00,70.0,-99.9,29.85,WSW,240,7.0,-999.0,-999,-99.99,,,-99.99,,2013-08-07 10:43:00,
2013-08-07 05:52:00,70.0,-99.9,29.84,WSW,250,10.0,-999.0,-999,-99.99,,,-99.99,,2013-08-07 10:52:00,
2013-08-07 06:02:00,70.0,-99.9,29.84,West,260,9.0,16.0,-999,-99.99,,,-99.99,,2013-08-07 11:02:00,
2013-08-07 06:11:00,70.0,-99.9,29.85,WSW,250,14.0,-999.0,-999,-99.99,,,-99.99,,2013-08-07 11:11:00,
2013-08-07 06:22:00,72.0,-99.9,29.86,WSW,240,12.0,20.0,-999,-99.99,,,-99.99,,2013-08-07 11:22:00,
2013-08-07 06:32:00,72.0,-99.9,29.88,WSW,250,13.0,20.0,-999,-99.99,,,-99.99,,2013-08-07 11:32:00,
2013-08-07 06:43:00,72.0,72.0,29.87,WSW,240,12.0,22.0,100,-99.99,,,-99.99,,2013-08-07 11:43:00,
2013-08-07 06:52:00,72.0,72.0,29.87,WSW,240,14.0,21.0,100,-99.99,,,-99.99,,2013-08-07 11:52:00,
2013-08-07 07:02:00,72.0,70.0,29.88,SW,230,15.0,-999.0,94,-99.99,,,-99.99,,2013-08-07 12:02:00,
2013-08-07 07:11:00,72.0,70.0,29.88,WSW,240,15.0,18.0,94,-99.99,,,-99.99,,2013-08-07 12:11:00,
2013-08-07 07:22:00,72.0,70.0,29.89,SW,230,13.0,-999.0,94,-99.99,,,-99.99,,2013-08-07 12:22:00,
2013-08-07 07:32:00,72.0,70.0,29.89,SW,230,16.0,22.0,94,-99.99,,,-99.99,,2013-08-07 12:32:00,
2013-08-07 07:43:00,72.0,70.0,29.90,SW,230,12.0,17.0,94,-99.99,,,-99.99,,2013-08-07 12:43:00,
2013-08-07 07:52:00,72.0,70.0,29.89,SW,220,9.0,-999.0,94,-99.99,,,-99.99,,2013-08-07 12:52:00,
2013-08-07 08:02:00,72.0,70.0,29.90,SW,230,12.0,17.0,94,-99.99,,,-99.99,,2013-08-07 13:02:00,
2013-08-07 08:11:00,72.0,70.0,29.89,SW,220,12.0,-999.0,94,-99.99,,,-99.99,,2013-08-07 13:11:00,
2013-08-07 08:22:00,72.0,70.0,29.90,SW,220,10.0,-999.0,94,-99.99,,,-99.99,,2013-08-07 13:22:00,
2013-08-07 08:32:00,72.0,70.0,29.90,SW,220,9.0,-999.0,94,-99.99,,,-99.99,,2013-08-07 13:32:00,
2013-08-07 08:44:00,72.0,70.0,29.90,SW,220,9.0,-999.0,94,-99.99,,,-99.99,,2013-08-07 13:44:00,
2013-08-07 08:53:00,72.0,70.0,29.90,SW,220,9.0,-999.0,94,-99.99,,,-99.99,,2013-08-07 13:53:00,
2013-08-07 09:02:00,72.0,70.0,29.90,SSW,210,6.0,-999.0,94,-99.99,,,-99.99,,2013-08-07 14:02:00,
2013-08-07 09:12:00,73.0,70.0,29.89,SW,220,7.0,-999.0,88,-99.99,,,-99.99,,2013-08-07 14:12:00,
2013-08-07 09:22:00,73.0,70.0,29.90,SSW,210,5.0,-999.0,88,-99.99,,,-99.99,,2013-08-07 14:22:00,
2013-08-07 09:33:00,73.0,70.0,29.91,WSW,250,8.0,-999.0,88,-99.99,,,-99.99,,2013-08-07 14:33:00,
2013-08-07 09:43:00,73.0,70.0,29.91,SW,230,8.0,-999.0,88,-99.99,,,-99.99,,2013-08-07 14:43:00,
2013-08-07 09:52:00,75.0,70.0,29.91,SW,230,7.0,-999.0,83,-99.99,,,-99.99,,2013-08-07 14:52:00,
2013-08-07 10:02:00,75.0,70.0,29.90,SW,230,10.0,-999.0,83,-99.99,,,-99.99,,2013-08-07 15:02:00,
2013-08-07 10:12:00,75.0,70.0,29.90,SW,230,8.0,-999.0,83,-99.99,,,-99.99,,2013-08-07 15:12:00,
2013-08-07 10:22:00,75.0,70.0,29.90,WSW,240,10.0,-999.0,83,-99.99,,,-99.99,,2013-08-07 15:22:00,
2013-08-07 10:33:00,75.0,70.0,29.90,SW,230,8.0,17.0,83,-99.99,,,-99.99,,2013-08-07 15:33:00,
2013-08-07 10:43:00,75.0,70.0,29.90,WSW,250,10.0,-999.0,83,-99.99,,,-99.99,,2013-08-07 15:43:00,
2013-08-07 10:53:00,75.0,72.0,29.90,West,260,10.0,-999.0,88,-99.99,,,-99.99,,2013-08-07 15:53:00,
2013-08-07 11:02:00,75.0,72.0,29.90,West,260,12.0,-999.0,88,-99.99,,,-99.99,,2013-08-07 16:02:00,
2013-08-07 11:11:00,75.0,72.0,29.90,WSW,250,10.0,-999.0,88,-99.99,,,-99.99,,2013-08-07 16:11:00,
2013-08-07 11:22:00,75.0,72.0,29.90,West,260,10.0,-999.0,88,-99.99,,,-99.99,,2013-08-07 16:22:00,
2013-08-07 11:33:00,77.0,72.0,29.91,West,270,8.0,-999.0,83,-99.99,,,-99.99,,2013-08-07 16:33:00,
2013-08-07 11:43:00,77.0,73.0,29.91,WSW,250,7.0,-999.0,88,-99.99,,,-99.99,,2013-08-07 16:43:00,
2013-08-07 11:53:00,77.0,72.0,29.92,West,270,12.0,-999.0,83,-99.99,,,-99.99,,2013-08-07 16:53:00,
2013-08-07 12:01:00,77.0,72.0,29.92,West,270,12.0,-999.0,83,-99.99,,,-99.99,,2013-08-07 17:01:00,
2013-08-07 12:11:00,77.0,73.0,29.91,West,260,7.0,-999.0,88,-99.99,,,-99.99,,2013-08-07 17:11:00,
2013-08-07 12:22:00,79.0,73.0,29.91,WSW,250,8.0,-999.0,83,-99.99,,,-99.99,,2013-08-07 17:22:00,
2013-08-07 12:33:00,77.0,73.0,29.92,WSW,240,9.0,-999.0,88,-99.99,,,-99.99,,2013-08-07 17:33:00,
2013-08-07 12:43:00,77.0,73.0,29.92,WSW,240,10.0,-999.0,88,-99.99,,,-99.99,,2013-08-07 17:43:00,
2013-08-07 12:52:00,77.0,73.0,29.92,WSW,240,10.0,-999.0,88,-99.99,,,-99.99,,2013-08-07 17:52:00,
2013-08-07 13:02:00,75.0,72.0,29.92,West,260,10.0,-999.0,88,-99.99,,,-99.99,,2013-08-07 18:02:00,
2013-08-07 13:11:00,75.0,72.0,29.92,WSW,250,7.0,-999.0,88,-99.99,,,-99.99,,2013-08-07 18:11:00,
2013-08-07 13:22:00,75.0,72.0,29.92,WSW,250,8.0,-999.0,88,-99.99,,,-99.99,,2013-08-07 18:22:00,
2013-08-07 13:32:00,75.0,72.0,29.92,WSW,240,9.0,-999.0,88,-99.99,,,-99.99,,2013-08-07 18:32:00,
2013-08-07 13:43:00,75.0,72.0,29.92,WSW,250,9.0,-999.0,88,-99.99,,,-99.99,,2013-08-07 18:43:00,
2013-08-07 13:52:00,75.0,72.0,29.92,WSW,240,8.0,-999.0,88,-99.99,,,-99.99,,2013-08-07 18:52:00,
2013-08-07 14:01:00,75.0,72.0,29.92,West,260,10.0,-999.0,88,-99.99,,,-99.99,,2013-08-07 19:01:00,
2013-08-07 14:11:00,75.0,72.0,29.92,WSW,250,10.0,-999.0,88,-99.99,,,-99.99,,2013-08-07 19:11:00,
2013-08-07 14:22:00,75.0,72.0,29.92,WSW,250,10.0,-999.0,88,-99.99,,,-99.99,,2013-08-07 19:22:00,
2013-08-07 14:32:00,77.0,72.0,29.91,WSW,250,6.0,-999.0,83,-99.99,,,-99.99,,2013-08-07 19:32:00,
2013-08-07 14:44:00,77.0,72.0,29.91,West,260,9.0,-999.0,83,-99.99,,,-99.99,,2013-08-07 19:44:00,
2013-08-07 14:52:00,77.0,73.0,29.91,West,260,7.0,-999.0,88,-99.99,,,-99.99,,2013-08-07 19:52:00,
2013-08-07 15:02:00,77.0,73.0,29.91,WSW,240,8.0,-999.0,88,-99.99,,,-99.99,,2013-08-07 20:02:00,
2013-08-07 15:11:00,79.0,73.0,29.91,West,260,9.0,-999.0,83,-99.99,,,-99.99,,2013-08-07 20:11:00,
2013-08-07 15:22:00,79.0,73.0,29.91,WSW,250,8.0,-999.0,83,-99.99,,,-99.99,,2013-08-07 20:22:00,
2013-08-07 15:32:00,79.0,73.0,29.90,WSW,250,8.0,-999.0,83,-99.99,,,-99.99,,2013-08-07 20:32:00,
2013-08-07 15:43:00,79.0,73.0,29.90,SW,220,8.0,-999.0,83,-99.99,,,-99.99,,2013-08-07 20:43:00,
2013-08-07 15:52:00,79.0,73.0,29.90,SW,220,8.0,-999.0,83,-99.99,,,-99.99,,2013-08-07 20:52:00,
2013-08-07 16:01:00,79.0,73.0,29.90,WSW,240,8.0,-999.0,83,-99.99,,,-99.99,,2013-08-07 21:01:00,
2013-08-07 16:11:00,81.0,73.0,29.90,West,260,6.0,-999.0,78,-99.99,,,-99.99,,2013-08-07 21:11:00,
2013-08-07 16:22:00,81.0,73.0,29.89,WSW,240,7.0,-999.0,78,-99.99,,,-99.99,,2013-08-07 21:22:00,
2013-08-07 16:32:00,81.0,73.0,29.89,WSW,250,7.0,-999.0,78,-99.99,,,-99.99,,2013-08-07 21:32:00,
2013-08-07 16:43:00,82.0,73.0,29.89,West,260,7.0,-999.0,74,-99.99,,,-99.99,,2013-08-07 21:43:00,
2013-08-07 16:52:00,82.0,73.0,29.89,West,260,9.0,-999.0,74,-99.99,,,-99.99,,2013-08-07 21:52:00,
2013-08-07 17:01:00,82.0,73.0,29.89,WSW,250,8.0,-999.0,74,-99.99,,,-99.99,,2013-08-07 22:01:00,
2013-08-07 17:12:00,82.0,73.0,29.89,WSW,250,7.0,-999.0,74,-99.99,,,-99.99,,2013-08-07 22:12:00,
2013-08-07 17:22:00,82.0,73.0,29.89,SW,220,6.0,-999.0,74,-99.99,,,-99.99,,2013-08-07 22:22:00,
2013-08-07 17:32:00,82.0,73.0,29.89,West,260,9.0,-999.0,74,-99.99,,,-99.99,,2013-08-07 22:32:00,
2013-08-07 17:43:00,82.0,75.0,29.89,WSW,240,5.0,-999.0,78,-99.99,,,-99.99,,2013-08-07 22:43:00,
2013-08-07 17:52:00,82.0,73.0,29.89,WSW,250,7.0,-999.0,74,-99.99,,,-99.99,,2013-08-07 22:52:00,
2013-08-07 18:01:00,82.0,73.0,29.90,WSW,240,6.0,-999.0,74,-99.99,,,-99.99,,2013-08-07 23:01:00,
2013-08-07 18:11:00,82.0,73.0,29.90,WSW,240,6.0,-999.0,74,-99.99,,,-99.99,,2013-08-07 23:11:00,
2013-08-07 18:22:00,82.0,73.0,29.90,WSW,240,6.0,-999.0,74,-99.99,,,-99.99,,2013-08-07 23:22:00,
2013-08-07 19:11:00,73.0,68.0,29.92,NNE,20,8.0,-999.0,83,-99.99,,,-99.99,,2013-08-08 00:11:00,
2013-08-07 19:32:00,73.0,68.0,29.92,NW,320,7.0,-999.0,83,-99.99,,,-99.99,,2013-08-08 00:32:00,
2013-08-07 19:43:00,73.0,68.0,29.92,NW,320,7.0,-999.0,83,-99.99,,,-99.99,,2013-08-08 00:43:00,
2013-08-07 19:52:00,72.0,70.0,29.92,North,0,0.0,-999.0,94,-99.99,,,-99.99,,2013-08-08 00:52:00,
2013-08-07 20:02:00,72.0,70.0,29.92,WSW,250,3.0,-999.0,94,-99.99,,,-99.99,,2013-08-08 01:02:00,
2013-08-07 20:11:00,72.0,70.0,29.92,West,260,6.0,-999.0,94,-99.99,,,-99.99,,2013-08-08 01:11:00,
2013-08-07 20:22:00,72.0,70.0,29.92,WNW,290,3.0,-999.0,94,-99.99,,,-99.99,,2013-08-08 01:22:00,
2013-08-07 20:32:00,72.0,70.0,29.92,North,0,0.0,-999.0,94,-99.99,,,-99.99,,2013-08-08 01:32:00,
2013-08-07 20:43:00,72.0,72.0,29.92,North,0,0.0,-999.0,100,-99.99,,,-99.99,,2013-08-08 01:43:00,
2013-08-07 20:52:00,70.0,70.0,29.92,North,0,0.0,-999.0,100,-99.99,,,-99.99,,2013-08-08 01:52:00,
2013-08-07 21:02:00,70.0,70.0,29.93,North,0,0.0,-999.0,100,-99.99,,,-99.99,,2013-08-08 02:02:00,
2013-08-07 21:11:00,70.0,70.0,29.93,North,0,0.0,-999.0,100,-99.99,,,-99.99,,2013-08-08 02:11:00,
2013-08-07 21:22:00,70.0,70.0,29.94,North,0,0.0,-999.0,100,-99.99,,,-99.99,,2013-08-08 02:22:00,
2013-08-07 21:32:00,70.0,70.0,29.94,North,360,3.0,-999.0,100,-99.99,,,-99.99,,2013-08-08 02:32:00,
2013-08-07 21:42:00,70.0,70.0,29.94,North,350,3.0,-999.0,100,-99.99,,,-99.99,,2013-08-08 02:42:00,
2013-08-07 21:52:00,70.0,70.0,29.95,NNW,340,6.0,-999.0,100,-99.99,,,-99.99,,2013-08-08 02:52:00,
2013-08-07 22:01:00,70.0,70.0,29.95,NNW,340,5.0,-999.0,100,-99.99,,,-99.99,,2013-08-08 03:01:00,
2013-08-07 22:12:00,70.0,70.0,29.95,North,350,5.0,-999.0,100,-99.99,,,-99.99,,2013-08-08 03:12:00,
2013-08-07 22:22:00,70.0,70.0,29.95,North,350,5.0,-999.0,100,-99.99,,,-99.99,,2013-08-08 03:22:00,
2013-08-07 22:32:00,70.0,70.0,29.96,NNW,340,7.0,-999.0,100,-99.99,,,-99.99,,2013-08-08 03:32:00,
2013-08-07 22:43:00,70.0,70.0,29.96,NNW,340,6.0,-999.0,100,-99.99,,,-99.99,,2013-08-08 03:43:00,
2013-08-07 22:52:00,70.0,70.0,29.96,North,350,5.0,-999.0,100,-99.99,,,-99.99,,2013-08-08 03:52:00,
2013-08-07 23:02:00,70.0,-99.9,29.96,North,350,5.0,-999.0,-999,-99.99,,,-99.99,,2013-08-08 04:02:00,
2013-08-07 23:12:00,70.0,-99.9,29.96,NNW,340,3.0,-999.0,-999,-99.99,,,-99.99,,2013-08-08 04:12:00,
2013-08-07 23:22:00,68.0,-99.9,29.96,NNW,340,5.0,-999.0,-999,-99.99,,,-99.99,,2013-08-08 04:22:00,
2013-08-07 23:33:00,68.0,-99.9,29.97,North,350,3.0,-999.0,-999,-99.99,,,-99.99,,2013-08-08 04:33:00,
2013-08-07 23:44:00,68.0,-99.9,29.97,NNW,330,3.0,-999.0,-999,-99.99,,,-99.99,,2013-08-08 04:44:00,
2013-08-07 23:53:00,68.0,-99.9,29.97,NNW,340,5.0,-999.0,-999,-99.99,,,-99.99,,2013-08-08 04:53:00,